[[{"header":{"parameterUnit":"m.s-1","parameterCategory":1,"la1":30.2991,"la2":30.254,"lo1":-89.0895,"lo2":-89.0444,"dy":0.0017,"dx":0.0017,"nx":28,"ny":28,"refTime":"2025-03-20T03:00:00:Z","depth":0,"parameterNumber":2,"parameterNumberName":"U-component_of_WINDS"},"data":[0,0,0,0,0,0,0,0,0,0,0,0,0,0,0,0,0,0,0,0,0,0,0,0,0,0,0,0,0,0,0,0,0,0,0,0,0,0,0,0,0,0,0,0,0,0,0,0,0,0,0,0,0,0,0,0,0,0,7.1112,7.1113,0,7.1245,7.1247,7.1248,7.118,7.1177,7.1173,7.117,7.1304,7.1311,7.1318,0,0,0,0,0,0,0,0,0,0,0,0,0,7.0798,7.0804,7.1112,7.1114,7.1115,7.1245,7.1247,7.1249,7.1181,7.1177,7.1172,7.1168,7.1302,7.131,7.1318,0,0,0,0,0,0,0,0,0,0,0,0,0,7.0933,7.0806,7.1112,7.1097,7.1097,7.1245,7.1247,7.1249,7.1182,7.1177,7.1171,7.1166,7.1299,7.1309,7.132,7.1488,0,0,7.1351,7.1355,0,0,0,0,0,0,0,0,7.0926,7.0945,7.1098,7.1098,7.1099,7.1191,7.1186,7.1329,7.1183,7.115,7.117,7.1164,7.1271,7.1283,7.132,7.1495,7.15,7.1352,7.1358,7.1363,7.1365,0,0,0,0,0,0,0,7.0917,7.0939,7.1164,7.11,7.1101,7.1084,7.1097,7.1213,7.1238,7.1152,7.1148,7.1164,7.127,7.131,7.1322,7.1502,7.1352,7.1361,7.1367,7.1371,7.1825,7.1831,0,0,0,0,0,0,7.0908,7.0931,7.116,7.1169,7.0998,7.1094,7.1109,7.1167,7.1237,7.1242,7.1169,7.1161,7.1295,7.131,7.1327,7.153,7.1362,7.1372,7.1378,7.1819,7.1827,7.1833,0,0,0,0,0,0,7.0902,7.0929,7.1155,7.1049,7.1076,7.1105,7.117,7.1172,7.1212,7.1249,7.1253,7.1205,7.1291,7.1312,7.1449,7.1534,7.1377,7.1386,7.1812,7.1822,7.183,7.1938,0,0,0,0,0,0,7.0893,7.0927,7.0991,7.1051,7.1082,7.1276,7.1175,7.1178,7.123,7.1221,7.1284,7.1289,7.1289,7.1435,7.146,7.1545,7.1394,7.1805,7.1817,7.1827,7.1927,7.195,7.1969,0,0,0,0,0,7.0882,7.1016,7.0995,7.1023,7.1163,7.1281,7.1299,7.1296,7.1237,7.1302,7.1327,7.1287,7.1521,7.1449,7.1477,7.1567,7.18,7.1813,7.1826,7.1918,7.1945,7.1969,0,0,0,0,0,0,7.0964,7.1023,7.1001,7.1158,7.1215,7.1269,7.1351,7.1325,7.1399,7.1387,7.138,7.1395,7.1538,7.1566,7.1485,7.1735,7.1651,7.1671,7.1711,7.1738,7.1758,7.1748,7.1403,0,0,0,0,0,7.1,7.1091,7.1138,7.1272,7.1302,7.1322,7.1373,7.1366,7.1425,7.1448,7.1482,7.154,7.1627,7.1684,7.1765,7.1931,7.1945,7.2007,7.2028,7.2045,7.2062,7.2154,7.2182,7.1877,7.1876,7.1876,0,0,7.1076,7.112,7.1177,7.129,7.1333,7.1427,7.1342,7.1445,7.1515,7.1463,7.1595,7.1623,7.1688,7.1841,7.191,7.1868,7.215,7.2062,7.2075,7.2083,7.217,7.2199,7.2225,7.1886,7.1884,7.1883,0,0,7.1263,7.1305,7.1422,7.1468,7.1536,7.1549,7.1577,7.1636,7.1653,7.1786,7.175,7.1833,7.1982,7.203,7.2074,7.2283,7.225,7.2309,7.2418,7.2508,7.2532,7.2553,7.2629,7.2656,7.2326,7.2326,7.2327,0,7.1348,7.1489,7.1485,7.1592,7.1643,7.1603,7.1722,7.1766,7.1857,7.1893,7.1846,7.2034,7.2074,7.2239,7.229,7.2327,7.236,7.2301,7.2529,7.255,7.257,7.2642,7.267,7.2333,7.2332,7.2332,7.2331,0,7.1592,7.1691,7.1777,7.1868,7.1929,7.2041,7.2054,7.2116,7.2105,7.2124,7.2261,7.2308,7.2399,7.2438,7.2427,7.2602,7.2575,7.2529,7.2444,7.2606,7.2673,7.2701,7.2343,7.234,7.2338,7.2337,0,0,7.1832,7.1921,7.1953,7.1994,7.2067,7.2144,7.2255,7.2346,7.24,7.2464,7.2558,7.2687,7.2645,7.2695,7.269,7.2769,7.2933,7.2713,7.2715,7.2753,7.313,7.3165,7.3197,7.2912,7.2918,7.2922,7.3125,0,7.2024,7.222,7.2221,7.2401,7.2493,7.2457,7.2554,7.261,7.2631,7.2712,7.2734,7.2826,7.2764,7.2794,7.2871,7.2897,7.3009,7.2882,7.3,7.3004,7.2984,7.3232,7.3268,7.3457,7.3151,7.3156,7.3159,0,7.2274,7.2349,7.2539,7.2601,7.264,7.2727,7.2812,7.289,7.2953,7.2962,7.302,7.3004,7.3118,7.3031,7.3188,7.3102,7.3151,7.3171,7.3179,7.3189,7.3091,7.3249,7.3518,7.3546,7.32,7.3197,7.3194,0,7.2431,7.2579,7.2713,7.2749,7.2825,7.2887,7.2922,7.298,7.3035,7.3109,7.3145,7.3231,7.3279,7.3346,7.3353,7.3289,7.3513,7.3426,7.3524,7.3524,7.3572,7.3569,7.3852,7.3604,7.3603,7.3603,7.3602,0,7.2646,7.2764,7.2785,7.2867,7.2998,7.2999,7.3129,7.3158,7.321,7.3298,7.3272,7.3354,7.3359,7.3444,7.3451,7.3581,7.3602,7.3614,7.3614,7.3616,7.3615,7.3647,7.3634,7.361,7.3609,7.3607,7.3606,0,7.2843,7.2862,7.3005,7.3066,7.3084,7.3178,7.323,7.3309,7.3328,7.3439,7.3465,7.3495,7.3594,7.3609,7.3724,7.3729,7.3886,7.3872,7.3865,7.3863,7.3961,7.3952,7.4275,7.4318,7.4041,7.4044,7.4046,0,7.2979,7.3069,7.3141,7.3198,7.3236,7.3328,7.3385,7.339,7.345,7.3531,7.36,7.3697,7.3774,7.3934,7.3966,7.4055,7.4044,7.4151,7.4057,7.4057,7.4046,7.4041,7.405,7.4169,7.4172,7.4174,7.4176,0,7.3218,7.3224,7.3307,7.3396,7.3465,7.3534,7.3599,7.3648,7.3661,7.3731,7.3832,7.3893,7.4012,7.4109,7.4197,7.4232,7.4208,7.4206,7.4234,7.4236,7.4229,7.4235,7.3915,7.4198,7.4196,7.4194,7.4193,7.4192,7.3389,7.3469,7.3532,7.3627,7.3677,7.3739,7.3817,7.3847,7.3932,7.403,7.4028,7.414,7.4202,7.4319,7.4361,7.4449,7.4414,7.4453,7.4464,7.4473,7.4483,7.4216,7.4465,7.4464,7.4464,7.4463,7.4463,0,7.3628,7.3668,7.3755,7.3848,7.3923,7.3895,7.3966,7.4031,7.413,7.4191,7.4269,7.4386,7.4481,7.4521,7.4614,7.4677,7.4668,7.4701,7.4696,7.4705,7.4509,7.4476,7.4707,7.4707,7.4707,7.4707,7.4707,7.4707,7.3761,7.3894,7.3908,7.4066,7.4104,7.4215,7.4258,7.4316,7.4365,7.4498,7.4577,7.4603,7.4657,7.4754,7.484,7.4849,7.4885,7.4923,7.4928,7.4744,7.4719,7.4695,7.4664,7.4931,7.4931,7.5117,7.5119,7.512]},{"header":{"parameterUnit":"m.s-1","parameterCategory":1,"la1":30.2991,"la2":30.254,"lo1":-89.0895,"lo2":-89.0444,"dy":0.0017,"dx":0.0017,"nx":28,"ny":28,"refTime":"2025-03-20T03:00:00:Z","depth":0,"parameterNumber":3,"parameterNumberName":"V-component_of_WINDS"},"data":[0,0,0,0,0,0,0,0,0,0,0,0,0,0,0,0,0,0,0,0,0,0,0,0,0,0,0,0,0,0,0,0,0,0,0,0,0,0,0,0,0,0,0,0,0,0,0,0,0,0,0,0,0,0,0,0,0,0,-7.6102,-7.6103,0,-7.6252,-7.6254,-7.6256,-7.6203,-7.62,-7.6196,-7.6193,-7.6343,-7.635,-7.6357,0,0,0,0,0,0,0,0,0,0,0,0,0,-7.5766,-7.5773,-7.6102,-7.6104,-7.6105,-7.6252,-7.6254,-7.6256,-7.6203,-7.6199,-7.6195,-7.6192,-7.6341,-7.6349,-7.6358,0,0,0,0,0,0,0,0,0,0,0,0,0,-7.5914,-7.5775,-7.6101,-7.6097,-7.6098,-7.6251,-7.6254,-7.6257,-7.6204,-7.6199,-7.6194,-7.619,-7.6338,-7.6348,-7.6359,-7.6524,0,0,-7.6391,-7.6396,0,0,0,0,0,0,0,0,-7.5905,-7.5926,-7.6096,-7.6098,-7.6099,-7.6204,-7.6191,-7.6346,-7.6206,-7.6164,-7.6193,-7.6187,-7.63,-7.6314,-7.6353,-7.6531,-7.6537,-7.6392,-7.6399,-7.6403,-7.6406,0,0,0,0,0,0,0,-7.5895,-7.5919,-7.6161,-7.6098,-7.61,-7.6087,-7.6102,-7.622,-7.6258,-7.6167,-7.6164,-7.6182,-7.63,-7.6343,-7.6356,-7.654,-7.6392,-7.6401,-7.6408,-7.6412,-7.6862,-7.6868,0,0,0,0,0,0,-7.5885,-7.5911,-7.6156,-7.6166,-7.5988,-7.6097,-7.6114,-7.6175,-7.6257,-7.6264,-7.6187,-7.6179,-7.6327,-7.6344,-7.6361,-7.6561,-7.6403,-7.6413,-7.6419,-7.6857,-7.6863,-7.6869,0,0,0,0,0,0,-7.5878,-7.5907,-7.615,-7.6038,-7.6067,-7.6108,-7.6177,-7.6181,-7.6223,-7.6271,-7.6278,-7.6223,-7.6324,-7.6346,-7.6485,-7.6565,-7.6418,-7.6427,-7.685,-7.6859,-7.6866,-7.6961,0,0,0,0,0,0,-7.5868,-7.5905,-7.5969,-7.6039,-7.6074,-7.6272,-7.6182,-7.6187,-7.6242,-7.6234,-7.6307,-7.6315,-7.6322,-7.6469,-7.6495,-7.6577,-7.6436,-7.6843,-7.6854,-7.6864,-7.6951,-7.6972,-7.6989,0,0,0,0,0,-7.5856,-7.5988,-7.5972,-7.6002,-7.6155,-7.6277,-7.6296,-7.6303,-7.6249,-7.6313,-7.6344,-7.6312,-7.6552,-7.6484,-7.6513,-7.6599,-7.6838,-7.6851,-7.6863,-7.6942,-7.6968,-7.6989,0,0,0,0,0,0,-7.5924,-7.5997,-7.598,-7.6139,-7.6203,-7.6268,-7.6349,-7.6329,-7.6408,-7.6398,-7.6401,-7.6418,-7.6561,-7.6593,-7.6516,-7.6764,-7.6687,-7.6706,-7.6737,-7.6762,-7.678,-7.6769,-7.6445,0,0,0,0,0,-7.5958,-7.6052,-7.611,-7.6245,-7.6278,-7.6308,-7.6362,-7.6362,-7.6427,-7.6453,-7.6494,-7.6558,-7.6647,-7.6706,-7.6791,-7.6956,-7.6971,-7.7029,-7.7049,-7.7064,-7.708,-7.717,-7.7197,-7.6911,-7.6911,-7.691,0,0,-7.6027,-7.6079,-7.6138,-7.626,-7.6309,-7.6406,-7.6331,-7.6436,-7.6508,-7.6468,-7.6602,-7.6635,-7.6706,-7.6859,-7.6928,-7.689,-7.7163,-7.708,-7.7092,-7.71,-7.7186,-7.7213,-7.7237,-7.6919,-7.6918,-7.6916,0,0,-7.6204,-7.6253,-7.6371,-7.6422,-7.6498,-7.6518,-7.6547,-7.6616,-7.6637,-7.6771,-7.6744,-7.6829,-7.6983,-7.7035,-7.7082,-7.7281,-7.7255,-7.7309,-7.7409,-7.7497,-7.7519,-7.7539,-7.761,-7.7636,-7.7325,-7.7325,-7.7325,0,-7.6281,-7.6427,-7.6433,-7.6542,-7.6597,-7.6567,-7.6686,-7.6735,-7.6835,-7.6873,-7.683,-7.7024,-7.707,-7.7234,-7.7283,-7.7322,-7.7354,-7.73,-7.7516,-7.7536,-7.7555,-7.7623,-7.7649,-7.7331,-7.733,-7.733,-7.7329,0,-7.6518,-7.662,-7.6706,-7.6805,-7.6869,-7.6982,-7.7005,-7.7069,-7.7064,-7.7088,-7.7226,-7.728,-7.7376,-7.7415,-7.741,-7.758,-7.7554,-7.7514,-7.7436,-7.7588,-7.7652,-7.7678,-7.734,-7.7338,-7.7336,-7.7334,0,0,-7.6741,-7.6843,-7.6875,-7.692,-7.7002,-7.7081,-7.7193,-7.7289,-7.7343,-7.7413,-7.7507,-7.764,-7.7603,-7.7656,-7.7657,-7.7734,-7.7889,-7.7684,-7.7686,-7.7721,-7.808,-7.811,-7.814,-7.7873,-7.7878,-7.7882,-7.8074,0,-7.6925,-7.7123,-7.7133,-7.7313,-7.7407,-7.7381,-7.7479,-7.754,-7.7566,-7.7649,-7.7676,-7.7771,-7.7715,-7.7747,-7.7823,-7.7855,-7.7961,-7.7841,-7.7959,-7.7963,-7.7942,-7.8173,-7.8205,-7.8384,-7.8099,-7.8103,-7.8106,0,-7.7165,-7.7245,-7.7435,-7.7506,-7.7545,-7.7633,-7.7722,-7.7802,-7.7871,-7.7884,-7.7945,-7.7935,-7.8049,-7.7969,-7.8126,-7.8044,-7.8093,-7.8117,-7.8124,-7.8134,-7.8044,-7.819,-7.8441,-7.8468,-7.8146,-7.8142,-7.814,0,-7.7309,-7.7464,-7.7598,-7.7637,-7.7722,-7.7785,-7.7823,-7.7887,-7.7944,-7.8022,-7.8059,-7.8148,-7.8197,-7.8267,-7.8281,-7.8221,-7.8439,-7.8359,-7.8453,-7.8452,-7.8499,-7.8496,-7.8761,-7.8531,-7.8531,-7.853,-7.853,0,-7.7513,-7.7631,-7.7663,-7.7746,-7.7877,-7.7886,-7.8015,-7.8049,-7.8106,-7.8194,-7.8177,-7.8259,-7.8274,-7.836,-7.8371,-7.85,-7.8522,-7.8536,-7.8537,-7.8538,-7.8536,-7.8569,-7.8557,-7.8537,-7.8536,-7.8534,-7.8533,0,-7.7696,-7.7722,-7.7867,-7.7937,-7.7957,-7.805,-7.811,-7.8188,-7.8213,-7.8324,-7.8351,-7.8389,-7.849,-7.8511,-7.8629,-7.8637,-7.8791,-7.878,-7.8768,-7.8767,-7.8859,-7.8851,-7.9155,-7.9196,-7.8939,-7.8942,-7.8944,0,-7.7824,-7.7914,-7.7994,-7.8053,-7.8095,-7.8189,-7.8248,-7.8261,-7.8323,-7.8409,-7.8478,-7.8577,-7.8656,-7.8818,-7.8855,-7.8946,-7.8937,-7.9038,-7.8951,-7.8948,-7.8939,-7.8934,-7.8943,-7.9054,-7.9057,-7.9059,-7.9061,0,-7.805,-7.8059,-7.8146,-7.8238,-7.8309,-7.8382,-7.8451,-7.85,-7.8522,-7.8593,-7.8696,-7.8758,-7.8881,-7.8979,-7.907,-7.9108,-7.9089,-7.9089,-7.9115,-7.9116,-7.9105,-7.9113,-7.8814,-7.9081,-7.9079,-7.9078,-7.9077,-7.9076,-7.8209,-7.8289,-7.8358,-7.8455,-7.8509,-7.8575,-7.8653,-7.8688,-7.8775,-7.8876,-7.8878,-7.8991,-7.9058,-7.9179,-7.9223,-7.9311,-7.9279,-7.9318,-7.9327,-7.9337,-7.9345,-7.9092,-7.9327,-7.9327,-7.9326,-7.9326,-7.9326,0,-7.8434,-7.8478,-7.8568,-7.8666,-7.8743,-7.872,-7.8795,-7.8861,-7.8961,-7.9026,-7.9105,-7.9224,-7.932,-7.9366,-7.946,-7.9522,-7.9515,-7.9546,-7.9542,-7.9551,-7.9368,-7.9336,-7.955,-7.955,-7.955,-7.955,-7.955,-7.955,-7.8561,-7.8694,-7.8711,-7.8871,-7.8913,-7.9025,-7.9071,-7.9131,-7.9183,-7.9317,-7.9397,-7.9427,-7.9485,-7.9583,-7.967,-7.9681,-7.9716,-7.9752,-7.9758,-7.9586,-7.9563,-7.9542,-7.9512,-7.9759,-7.9759,-7.9934,-7.9935,-7.9937]}]]